Zurück zum Katalog

GOES 5

AktivWetterGEO
NORAD 12472·PAYLOAD·🇺🇸 United States

Gestartet May 22, 1981 von Cape Canaveral Space Force Station

Loading…

TLE

AktuellSource: Space-Track

Epoche: Sep 14, 2026, 09:48 UTC

1 12472U 81049A   26257.40836388  .00000055  00000-0  00000-0 0  9990
2 12472   9.2054 315.1404 0003965 309.8528 103.3945  1.00226724123740

Verfolge GOES 5 in Echtzeit mit AllMySat

Download on the App Store